Skip Page Navigation
NASA JPL Caltech
NASA Logo - Jet Propulsion Laboratory + View the NASA Portal
+ Center for Near-Earth Object Studies
JPL Home Earth Solar System Stars & Galaxies Technology
JPL Solar System Dynamics
BODIES ORBITS EPHEMERIDES TOOLS PHYSICAL DATA DISCOVERY FAQ SITE MAP
JPL Small-Body Database Browser
Search: [ help ]  
362367 (2010 NH28)
Classification: Main-belt Asteroid          SPK-ID: 2362367
Ephemeris | Orbit Diagram | Orbital Elements | Mission Design | Physical Parameters | Discovery Circumstances ]

[ show orbit diagram ]
Orbital Elements at Epoch 2459200.5 (2020-Dec-17.0) TDB
Reference: JPL 15 (heliocentric ecliptic J2000)
 Element Value Uncertainty (1-sigma)   Units 
e .06478331852979417 7.0443e-08  
a 2.725901106383026 2.5479e-08 au
q 2.549308186727496 2.0022e-07 au
i 7.623285947122485 7.5609e-06 deg
node 194.5432407685366 3.3678e-05 deg
peri 6.976023031698119 5.1324e-05 deg
M 264.2422247429337 4.2357e-05 deg
tp 2459637.755335455592
(2022-Feb-27.25533546)
0.00019647 TDB
period 1643.855241430092
4.50
2.3048e-05
6.31e-08
d
yr
n .2189973854916894 3.0704e-09 deg/d
Q 2.902494026038556 2.713e-08 au
  Orbit Determination Parameters
   # obs. used (total)      251  
   data-arc span      9399 days (25.73 yr)  
   first obs. used      1995-04-26  
   last obs. used      2021-01-18  
   planetary ephem.      DE441  
   SB-pert. ephem.      SB441-N16  
   condition code      0  
   norm. resid. RMS      .59711  
   source      ORB  
   producer      Otto Matic  
   solution date      2021-Apr-14 09:39:15  

Additional Information
 Earth MOID = 1.54576 au 
 Jupiter MOID = 2.0531 au 
 T_jup = 3.341 
[ show covariance matrix ]

Ephemeris | Orbit Diagram | Orbital Elements | Mission Design | Physical Parameters | Discovery Circumstances ]

Physical Parameter Table
Parameter Symbol Value Units Sigma Reference Notes
absolute magnitude H 16.56   n/a MPCxxxxx  
diameter diameter 3.793 km 0.592 urn:nasa:pds:neowise_diameters_albedos::2.0[mainbelt] (http://adsabs.harvard.edu/abs/2011ApJ...741...68M)  
geometric albedo albedo 0.031   0.006 urn:nasa:pds:neowise_diameters_albedos::2.0[mainbelt] (http://adsabs.harvard.edu/abs/2011ApJ...741...68M)  

362367 (2010 NH28)          Discovered 2010-Jul-07 by WISE at WISE
Reference: Last Updated: 2013-04-29

Alternate Designations
 2010 NH28 = 1995 HK4 
Ephemeris | Orbit Diagram | Orbital Elements | Mission Design | Physical Parameters | Discovery Circumstances ]
ABOUT SSD CREDITS/AWARDS PRIVACY/COPYRIGHT GLOSSARY LINKS
FirstGov 2021-Jun-17 10:04 UT
(server date/time)  
NASA Home Page
Site Manager:   Ryan S. Park
Webmaster  Alan B. Chamberlin